STARLINK-35810

Last updated on Wed Dec 31 2025 00:02:06 GMT+0000 (Coordinated Universal Time)

1 66575U 25268U 25364.58335648 .00060174 00000+0 21810-2 0 9995 2 66575 43.0004 17.4904 0001946 266.5587 289.5015 15.27539974 6026
UTC large
Height (km)
Speed (km/s)
/
Latitude / Longitude
Inclination (degrees)
Orbital Period (minutes)
Azimuth
Elevation
Range (km)
Doppler Factor

Next 0 passes for location: London (51.5072 / 0.1276)

Sorry there are no passes over London.